Le nostre stazioni meteo in Italia

Pubblicità
Il mio iltempo24.it
Chillingham Barns, Gran Bretagna (99196): Temperatura & dewpoint: 17.07.2019 05:00:00 - 23.07.2019 05:00:00 (BST)Chillingham Barns, Gran Bretagna (99196): precipitazioni: 17.07.2019 05:00:00 - 23.07.2019 05:00:00 (BST)
Data & Tempo tt [°C] td [°C] rr [mm]
23.07.2019 05:00:00 17,6 15,1 0,0
23.07.2019 04:00:00 17,1 15,4 0,0
23.07.2019 03:00:00 17,3 15,0 0,0
23.07.2019 02:00:00 17,9 15,2 0,0
23.07.2019 01:00:00 18,1 15,3 0,0
23.07.2019 00:00:00 18,4 15,3 0,0
22.07.2019 23:00:00 18,6 15,3 0,0
22.07.2019 22:00:00 19,1 15,7 0,0
22.07.2019 21:00:00 19,8 16,0 0,0
22.07.2019 20:00:00 20,4 15,7 0,0
22.07.2019 19:00:00 21,2 16,0 0,0
22.07.2019 18:00:00 22,1 16,1 0,0
22.07.2019 17:00:00 21,8 16,1 0,0
22.07.2019 16:00:00 21,1 15,8 0,0
22.07.2019 15:00:00 20,9 15,8 0,0
22.07.2019 14:00:00 20,5 16,2 0,0
22.07.2019 13:00:00 20,2 16,2 0,0
22.07.2019 12:00:00 20,5 16,1 0,0
22.07.2019 11:00:00 21,8 17,1 0,0
22.07.2019 10:00:00 21,6 16,6 0,0
22.07.2019 09:00:00 19,7 16,7 0,0
22.07.2019 08:00:00 18,9 16,4 0,0
22.07.2019 07:00:00 19,0 16,6 0,0
22.07.2019 06:00:00 19,4 16,7 0,0
22.07.2019 05:00:00 19,0 16,6 0,0
22.07.2019 04:00:00 19,0 17,0 0,0
22.07.2019 03:00:00 16,3 15,7 0,0
22.07.2019 02:00:00 15,5 14,9 0,0
22.07.2019 01:00:00 15,1 14,6 0,4
22.07.2019 00:00:00 15,3 14,6 1,0
21.07.2019 23:00:00 15,1 14,4 1,2
21.07.2019 22:00:00 15,2 14,0 0,4
21.07.2019 21:00:00 15,5 13,6 0,2
21.07.2019 20:00:00 16,5 13,2 0,2
21.07.2019 19:00:00 17,5 13,4 0,0
21.07.2019 18:00:00 17,4 12,8 0,0
21.07.2019 17:00:00 18,0 12,3 0,0
21.07.2019 16:00:00 18,5 11,3 0,0
21.07.2019 15:00:00 18,8 11,2 0,0
21.07.2019 14:00:00 18,2 11,9 0,0
21.07.2019 13:00:00 18,9 12,8 0,0
21.07.2019 12:00:00 18,3 12,6 0,0
21.07.2019 11:00:00 16,9 12,8 0,0
21.07.2019 10:00:00 17,7 12,6 0,0
21.07.2019 09:00:00 16,9 12,7 0,0
21.07.2019 08:00:00 16,3 12,5 0,0
21.07.2019 07:00:00 14,8 11,7 0,0
21.07.2019 06:00:00 12,1 9,1 0,0
21.07.2019 05:00:00 12,1 9,4 0,0
21.07.2019 04:00:00 11,8 9,3 0,0
21.07.2019 03:00:00 10,8 7,7 0,0
21.07.2019 02:00:00 11,6 8,0 0,0
21.07.2019 01:00:00 12,7 8,3 0,0
21.07.2019 00:00:00 13,2 8,7 0,0
20.07.2019 23:00:00 14,0 9,0 0,0
20.07.2019 22:00:00 15,0 9,6 0,0
20.07.2019 21:00:00 16,1 10,1 0,0
20.07.2019 20:00:00 17,5 11,5 0,0
20.07.2019 19:00:00 18,4 11,9 0,0
20.07.2019 18:00:00 19,3 14,5 0,0
20.07.2019 17:00:00 18,7 15,7 0,6
20.07.2019 16:00:00 17,9 16,1 0,0
20.07.2019 15:00:00 19,7 15,7 0,2
20.07.2019 14:00:00 20,5 15,1 0,0
20.07.2019 13:00:00 21,1 13,0 0,0
20.07.2019 12:00:00 20,7 15,4 0,0
20.07.2019 11:00:00 19,2 15,7 0,0
20.07.2019 10:00:00 17,1 14,6 0,0
20.07.2019 09:00:00 17,4 14,6 0,0
20.07.2019 08:00:00 15,9 15,1 0,2
20.07.2019 07:00:00 15,3 14,9 3,4
20.07.2019 06:00:00 14,9 14,4 1,4
20.07.2019 05:00:00 15,2 13,9 0,0
20.07.2019 04:00:00 15,3 13,6 0,0
20.07.2019 03:00:00 15,2 13,7 0,0
20.07.2019 02:00:00 14,9 13,4 0,0
20.07.2019 01:00:00 15,8 14,4 0,0
20.07.2019 00:00:00 16,0 14,9 0,0
19.07.2019 23:00:00 15,5 15,0 0,0
19.07.2019 22:00:00 15,3 14,7 0,0
19.07.2019 21:00:00 15,2 14,4 0,6
19.07.2019 20:00:00 15,6 14,2 0,0
19.07.2019 19:00:00 15,2 13,9 0,0
19.07.2019 18:00:00 16,6 13,2 0,0
19.07.2019 17:00:00 17,8 12,6 0,0
19.07.2019 16:00:00 19,5 12,8 0,0
19.07.2019 15:00:00 19,2 12,5 0,0
19.07.2019 14:00:00 19,1 13,8 0,0
19.07.2019 13:00:00 18,2 14,1 0,0
19.07.2019 12:00:00 18,6 13,1 0,0
19.07.2019 11:00:00 18,3 13,0 0,0
19.07.2019 10:00:00 17,8 12,0 0,0
19.07.2019 09:00:00 16,2 12,7 0,0
19.07.2019 08:00:00 14,1 11,5 0,0
19.07.2019 07:00:00 13,4 11,3 0,0
19.07.2019 06:00:00 12,9 10,7 0,0
19.07.2019 05:00:00 13,1 11,0 0,0
19.07.2019 04:00:00 12,1 10,0 0,0
19.07.2019 03:00:00 12,4 10,4 0,0
19.07.2019 02:00:00 12,8 9,9 0,0
19.07.2019 01:00:00 13,1 10,4 0,0
19.07.2019 00:00:00 12,4 9,9 0,0
18.07.2019 23:00:00 12,9 9,8 0,0
18.07.2019 22:00:00 13,3 9,9 0,0
18.07.2019 21:00:00 15,1 10,4 0,0
18.07.2019 20:00:00 16,5 11,4 0,0
18.07.2019 19:00:00 17,5 10,9 0,0
18.07.2019 18:00:00 17,5 11,6 0,0
18.07.2019 17:00:00 17,7 10,3 0,0
18.07.2019 16:00:00 20,6 11,9 0,0
18.07.2019 15:00:00 17,6 11,3 0,0
18.07.2019 14:00:00 18,6 10,1 0,0
18.07.2019 13:00:00 20,1 11,9 0,0
18.07.2019 12:00:00 20,2 12,1 0,0
18.07.2019 11:00:00 18,4 11,5 0,0
18.07.2019 10:00:00 17,0 12,5 0,0
18.07.2019 09:00:00 17,3 12,0 0,0
18.07.2019 08:00:00 15,6 11,9 0,0
18.07.2019 07:00:00 13,0 10,4 0,0
18.07.2019 06:00:00 11,8 9,8 0,0
18.07.2019 05:00:00 12,9 10,5 0,0
18.07.2019 04:00:00 13,6 11,4 0,0
18.07.2019 03:00:00 15,0 13,5 0,0
18.07.2019 02:00:00 15,2 13,5 0,0
18.07.2019 01:00:00 14,6 13,4 0,0
18.07.2019 00:00:00 14,7 13,3 0,0
17.07.2019 23:00:00 14,5 13,4 0,0
17.07.2019 22:00:00 14,2 13,6 0,2
17.07.2019 21:00:00 14,2 13,5 1,4
17.07.2019 20:00:00 14,3 13,6 2,2
17.07.2019 19:00:00 14,9 13,7 1,6
17.07.2019 18:00:00 15,4 13,2 0,8
17.07.2019 17:00:00 16,7 13,8 0,4
17.07.2019 16:00:00 17,0 13,0 0,0
17.07.2019 15:00:00 20,0 12,9 0,0
17.07.2019 14:00:00 19,7 13,1 0,0
17.07.2019 13:00:00 19,6 12,2 0,0
17.07.2019 12:00:00 20,5 13,6 0,0
17.07.2019 11:00:00 19,3 13,8 0,0
17.07.2019 10:00:00 18,8 12,6 0,0
17.07.2019 09:00:00 18,1 12,9 0,0
17.07.2019 08:00:00 16,0 12,0 0,0
17.07.2019 07:00:00 15,1 12,3 0,0
17.07.2019 06:00:00 13,6 11,2 0,0
17.07.2019 05:00:00 14,6 10,8 0,0

tt = Temperatura
td = dewpoint
rr = precipitazioni

Stazioni seguenti

WeatherPro
AMSI
MeteoEarth